Location: Blazny
(46.0612°N, 84.4033°W)
Time: 08:23:42
(UTC-04:00)

Tiangong - Visible Passes

Search period start: 15 May 2025 00:00
Search period end: 25 May 2025 00:00
Orbit: 378 x 386 km, 41.5° (Epoch: 14 May)

Date Brightness Start Highest point End Pass type
(mag) Time Alt. Az. Time Alt. Az. Time Alt. Az.
15 May -0.2 04:35:24 16° S 04:36:10 17° SSE 04:38:22 10° ESE visible
16 May -1.0 05:09:39 12° SW 05:12:05 29° S 05:14:54 10° ESE visible
17 May -0.7 04:11:42 23° SSE 04:11:42 23° SSE 04:14:16 10° ESE visible
18 May -1.3 04:45:50 19° SW 04:47:31 33° S 04:50:26 10° ESE visible
19 May -0.7 03:47:48 25° SE 03:47:48 25° SE 03:49:45 10° ESE visible
19 May -1.3 05:20:27 10° WSW 05:23:22 33° S 05:26:16 10° ESE visible
20 May -1.4 04:21:55 29° SW 04:22:43 35° S 04:25:40 10° ESE visible
21 May 0.0 03:23:56 17° ESE 03:23:56 17° ESE 03:24:56 10° ESE visible
21 May -1.2 04:56:04 13° WSW 04:58:26 29° S 05:01:14 10° SE visible
22 May -1.2 03:58:11 31° SSE 03:58:11 31° SSE 04:00:36 10° ESE visible
23 May -0.9 04:32:37 22° SW 04:33:15 23° SSW 04:35:51 10° SE visible
24 May -0.1 05:07:25 10° SW 05:08:35 12° SSW 05:09:56 10° S visible
